Time,TemperatureF,DewpointF,PressureIn,WindDirection,WindDirectionDegrees,WindSpeedMPH,WindSpeedGustMPH,Humidity,HourlyPrecipIn,Conditions,Clouds,dailyrainin,SoftwareType,DateUTC
2013-10-04 00:40:00,67.4,65.0,29.90,ESE,110,0.0,1.0,91,0.00,,,0.00,weatherlink.com 1.10,2013-10-04 04:40:00,
2013-10-04 00:55:00,67.5,65.0,29.89,SE,128,0.0,2.0,91,0.00,,,0.00,weatherlink.com 1.10,2013-10-04 04:55:00,
2013-10-04 01:10:00,67.5,65.0,29.89,SE,146,0.0,1.0,91,0.00,,,0.00,weatherlink.com 1.10,2013-10-04 05:10:00,
2013-10-04 01:40:00,67.3,65.0,29.89,South,176,0.0,3.0,92,0.00,,,0.00,weatherlink.com 1.10,2013-10-04 05:40:00,
2013-10-04 01:55:00,67.2,65.0,29.90,West,267,2.0,4.0,92,0.00,,,0.00,weatherlink.com 1.10,2013-10-04 05:55:00,
2013-10-04 02:10:00,67.3,65.0,29.90,WSW,246,4.0,6.0,92,0.00,,,0.00,weatherlink.com 1.10,2013-10-04 06:10:00,
2013-10-04 02:25:00,67.5,65.0,29.91,WSW,253,3.0,6.0,92,0.00,,,0.00,weatherlink.com 1.10,2013-10-04 06:25:00,
2013-10-04 02:40:00,67.5,65.0,29.91,SSW,194,2.0,5.0,92,0.00,,,0.00,weatherlink.com 1.10,2013-10-04 06:40:00,
2013-10-04 02:55:00,67.1,65.0,29.91,West,260,2.0,4.0,93,0.00,,,0.00,weatherlink.com 1.10,2013-10-04 06:55:00,
2013-10-04 03:10:00,66.9,65.0,29.92,WNW,285,3.0,6.0,94,0.01,,,0.01,weatherlink.com 1.10,2013-10-04 07:10:00,
2013-10-04 03:25:00,66.6,65.0,29.91,NW,318,0.0,3.0,94,0.03,,,0.03,weatherlink.com 1.10,2013-10-04 07:25:00,
2013-10-04 03:40:00,66.3,65.0,29.90,SE,146,2.0,2.0,95,0.07,,,0.07,weatherlink.com 1.10,2013-10-04 07:40:00,
2013-10-04 03:55:00,66.1,65.0,29.90,SSE,153,0.0,1.0,95,0.08,,,0.08,weatherlink.com 1.10,2013-10-04 07:55:00,
2013-10-04 04:10:00,65.9,65.0,29.89,SSE,153,1.0,1.0,96,0.06,,,0.08,weatherlink.com 1.10,2013-10-04 08:10:00,
2013-10-04 04:25:00,65.7,65.0,29.89,South,188,1.0,2.0,96,0.05,,,0.08,weatherlink.com 1.10,2013-10-04 08:25:00,
2013-10-04 04:40:00,65.6,65.0,29.88,SSE,166,0.0,3.0,96,0.01,,,0.08,weatherlink.com 1.10,2013-10-04 08:40:00,
2013-10-04 04:55:00,65.6,65.0,29.87,SSW,200,3.0,5.0,97,0.00,,,0.08,weatherlink.com 1.10,2013-10-04 08:55:00,
2013-10-04 05:10:00,65.8,65.0,29.87,SSE,153,1.0,6.0,96,0.00,,,0.08,weatherlink.com 1.10,2013-10-04 09:10:00,
2013-10-04 05:25:00,66.0,65.0,29.87,South,169,4.0,7.0,96,0.00,,,0.08,weatherlink.com 1.10,2013-10-04 09:25:00,
2013-10-04 05:40:00,66.0,65.0,29.87,SSW,212,3.0,8.0,95,0.00,,,0.08,weatherlink.com 1.10,2013-10-04 09:40:00,
2013-10-04 05:55:00,66.0,65.0,29.89,West,280,1.0,6.0,95,0.00,,,0.08,weatherlink.com 1.10,2013-10-04 09:55:00,
2013-10-04 06:10:00,66.0,64.0,29.90,SW,231,3.0,6.0,94,0.00,,,0.08,weatherlink.com 1.10,2013-10-04 10:10:00,
2013-10-04 06:25:00,65.9,65.0,29.90,WNW,288,0.0,6.0,95,0.00,,,0.08,weatherlink.com 1.10,2013-10-04 10:25:00,
2013-10-04 06:40:00,65.7,64.0,29.91,WNW,301,0.0,3.0,95,0.00,,,0.08,weatherlink.com 1.10,2013-10-04 10:40:00,
2013-10-04 06:55:00,65.5,64.0,29.91,WNW,287,0.0,1.0,95,0.00,,,0.08,weatherlink.com 1.10,2013-10-04 10:55:00,
2013-10-04 07:10:00,65.3,64.0,29.91,West,267,0.0,1.0,95,0.00,,,0.08,weatherlink.com 1.10,2013-10-04 11:10:00,
2013-10-04 07:25:00,64.9,64.0,29.92,West,262,0.0,1.0,96,0.00,,,0.08,weatherlink.com 1.10,2013-10-04 11:25:00,
2013-10-04 07:40:00,64.4,63.0,29.93,West,262,0.0,0.0,96,0.00,,,0.08,weatherlink.com 1.10,2013-10-04 11:40:00,
2013-10-04 07:55:00,64.6,64.0,29.93,West,264,0.0,5.0,97,0.00,,,0.08,weatherlink.com 1.10,2013-10-04 11:55:00,
2013-10-04 08:10:00,64.8,64.0,29.94,WNW,283,0.0,1.0,97,0.00,,,0.08,weatherlink.com 1.10,2013-10-04 12:10:00,
2013-10-04 08:25:00,64.9,64.0,29.94,WNW,284,0.0,0.0,97,0.00,,,0.08,weatherlink.com 1.10,2013-10-04 12:25:00,
2013-10-04 08:41:00,65.1,64.0,29.95,West,281,0.0,0.0,97,0.00,,,0.08,weatherlink.com 1.10,2013-10-04 12:41:00,
2013-10-04 08:56:00,65.5,65.0,29.95,NW,312,0.0,2.0,97,0.00,,,0.08,weatherlink.com 1.10,2013-10-04 12:56:00,
2013-10-04 09:11:00,65.6,65.0,29.95,NW,320,0.0,3.0,96,0.00,,,0.08,weatherlink.com 1.10,2013-10-04 13:11:00,
2013-10-04 09:26:00,66.2,65.0,29.95,WNW,294,0.0,2.0,96,0.00,,,0.08,weatherlink.com 1.10,2013-10-04 13:26:00,
2013-10-04 09:41:00,66.8,65.0,29.95,NW,305,0.0,4.0,95,0.00,,,0.08,weatherlink.com 1.10,2013-10-04 13:41:00,
2013-10-04 09:56:00,68.1,66.0,29.95,West,268,0.0,5.0,93,0.00,,,0.08,weatherlink.com 1.10,2013-10-04 13:56:00,
2013-10-04 10:11:00,68.9,66.0,29.96,West,271,1.0,4.0,90,0.00,,,0.08,weatherlink.com 1.10,2013-10-04 14:11:00,
2013-10-04 10:26:00,68.8,66.0,29.96,NW,318,3.0,6.0,89,0.00,,,0.08,weatherlink.com 1.10,2013-10-04 14:26:00,
2013-10-04 10:41:00,69.2,66.0,29.95,NW,307,2.0,3.0,89,0.00,,,0.08,weatherlink.com 1.10,2013-10-04 14:41:00,
2013-10-04 10:56:00,70.1,67.0,29.96,WSW,250,3.0,5.0,88,0.00,,,0.08,weatherlink.com 1.10,2013-10-04 14:56:00,
2013-10-04 11:11:00,71.1,67.0,29.96,WNW,288,1.0,4.0,86,0.00,,,0.08,weatherlink.com 1.10,2013-10-04 15:11:00,
2013-10-04 11:26:00,72.6,67.0,29.95,SW,226,3.0,5.0,82,0.00,,,0.08,weatherlink.com 1.10,2013-10-04 15:26:00,
2013-10-04 11:41:00,72.4,67.0,29.95,NW,312,3.0,7.0,82,0.00,,,0.08,weatherlink.com 1.10,2013-10-04 15:41:00,
2013-10-04 11:56:00,72.6,67.0,29.95,NW,315,6.0,7.0,81,0.00,,,0.08,weatherlink.com 1.10,2013-10-04 15:56:00,
2013-10-04 12:11:00,73.3,67.0,29.95,NW,326,4.0,8.0,80,0.00,,,0.08,weatherlink.com 1.10,2013-10-04 16:11:00,
2013-10-04 12:26:00,73.9,67.0,29.96,NW,304,4.0,9.0,78,0.00,,,0.08,weatherlink.com 1.10,2013-10-04 16:26:00,
2013-10-04 12:41:00,74.3,67.0,29.95,WNW,297,2.0,9.0,77,0.00,,,0.08,weatherlink.com 1.10,2013-10-04 16:41:00,
2013-10-04 12:56:00,75.1,67.0,29.95,NW,318,2.0,8.0,77,0.00,,,0.08,weatherlink.com 1.10,2013-10-04 16:56:00,
2013-10-04 13:26:00,75.5,67.0,29.95,WNW,285,2.0,7.0,75,0.00,,,0.08,weatherlink.com 1.10,2013-10-04 17:26:00,
2013-10-04 14:11:00,76.3,67.0,29.95,SW,229,3.0,7.0,73,0.00,,,0.08,weatherlink.com 1.10,2013-10-04 18:11:00,
2013-10-04 14:26:00,76.8,68.0,29.95,West,269,1.0,6.0,73,0.00,,,0.08,weatherlink.com 1.10,2013-10-04 18:26:00,
2013-10-04 14:41:00,77.1,67.0,29.94,WSW,257,3.0,6.0,72,0.00,,,0.08,weatherlink.com 1.10,2013-10-04 18:41:00,
2013-10-04 14:56:00,76.9,67.0,29.93,SSW,195,2.0,5.0,72,0.00,,,0.08,weatherlink.com 1.10,2013-10-04 18:56:00,
2013-10-04 15:11:00,77.2,67.0,29.93,WSW,253,4.0,7.0,71,0.00,,,0.08,weatherlink.com 1.10,2013-10-04 19:11:00,
2013-10-04 15:26:00,78.9,68.0,29.93,SSW,211,3.0,7.0,69,0.00,,,0.08,weatherlink.com 1.10,2013-10-04 19:26:00,
2013-10-04 15:41:00,78.6,68.0,29.93,WSW,241,2.0,7.0,69,0.00,,,0.08,weatherlink.com 1.10,2013-10-04 19:41:00,
2013-10-04 15:56:00,78.9,67.0,29.93,SSW,203,2.0,6.0,68,0.00,,,0.08,weatherlink.com 1.10,2013-10-04 19:56:00,
2013-10-04 16:11:00,78.6,67.0,29.93,SW,222,1.0,6.0,68,0.00,,,0.08,weatherlink.com 1.10,2013-10-04 20:11:00,
2013-10-04 16:26:00,79.0,68.0,29.93,SE,135,0.0,5.0,68,0.00,,,0.08,weatherlink.com 1.10,2013-10-04 20:26:00,
2013-10-04 16:41:00,78.0,67.0,29.93,SW,235,4.0,6.0,68,0.00,,,0.08,weatherlink.com 1.10,2013-10-04 20:41:00,
2013-10-04 16:56:00,77.8,67.0,29.94,SSE,161,2.0,4.0,70,0.00,,,0.08,weatherlink.com 1.10,2013-10-04 20:56:00,
2013-10-04 17:11:00,77.5,67.0,29.94,SW,219,3.0,4.0,71,0.00,,,0.08,weatherlink.com 1.10,2013-10-04 21:11:00,
2013-10-04 17:26:00,78.0,68.0,29.94,SW,218,2.0,4.0,71,0.00,,,0.08,weatherlink.com 1.10,2013-10-04 21:26:00,
2013-10-04 17:41:00,77.4,67.0,29.95,SW,236,0.0,5.0,71,0.00,,,0.08,weatherlink.com 1.10,2013-10-04 21:41:00,
2013-10-04 17:56:00,77.5,68.0,29.94,SW,233,1.0,2.0,72,0.00,,,0.08,weatherlink.com 1.10,2013-10-04 21:56:00,
2013-10-04 18:11:00,76.6,69.0,29.94,SSE,158,2.0,2.0,76,0.00,,,0.08,weatherlink.com 1.10,2013-10-04 22:11:00,
2013-10-04 18:26:00,75.7,68.0,29.94,South,173,2.0,4.0,77,0.00,,,0.08,weatherlink.com 1.10,2013-10-04 22:26:00,
2013-10-04 18:41:00,75.0,68.0,29.95,South,170,0.0,2.0,79,0.00,,,0.08,weatherlink.com 1.10,2013-10-04 22:41:00,
2013-10-04 18:56:00,74.6,68.0,29.95,SSW,200,0.0,1.0,80,0.00,,,0.08,weatherlink.com 1.10,2013-10-04 22:56:00,
2013-10-04 19:12:00,74.0,68.0,29.96,NNW,347,3.0,6.0,80,0.00,,,0.08,weatherlink.com 1.10,2013-10-04 23:12:00,
2013-10-04 19:27:00,72.3,67.0,29.97,NW,323,4.0,8.0,82,0.00,,,0.08,weatherlink.com 1.10,2013-10-04 23:27:00,
2013-10-04 19:42:00,70.4,65.0,29.97,NNE,32,0.0,7.0,84,0.00,,,0.08,weatherlink.com 1.10,2013-10-04 23:42:00,
2013-10-04 19:57:00,68.6,65.0,29.96,East,97,0.0,3.0,87,0.00,,,0.08,weatherlink.com 1.10,2013-10-04 23:57:00,
2013-10-04 20:12:00,67.5,64.0,29.97,NNE,32,0.0,1.0,89,0.00,,,0.08,weatherlink.com 1.10,2013-10-05 00:12:00,
2013-10-04 20:27:00,66.7,64.0,29.97,ENE,60,0.0,3.0,90,0.00,,,0.08,weatherlink.com 1.10,2013-10-05 00:27:00,
2013-10-04 20:42:00,66.2,64.0,29.97,NNE,32,0.0,1.0,92,0.00,,,0.08,weatherlink.com 1.10,2013-10-05 00:42:00,
2013-10-04 20:57:00,65.9,64.0,29.97,NE,41,0.0,2.0,93,0.00,,,0.08,weatherlink.com 1.10,2013-10-05 00:57:00,
2013-10-04 21:12:00,65.9,64.0,29.98,West,260,0.0,3.0,93,0.00,,,0.08,weatherlink.com 1.10,2013-10-05 01:12:00,
2013-10-04 21:27:00,65.8,64.0,29.98,NE,53,0.0,1.0,93,0.00,,,0.08,weatherlink.com 1.10,2013-10-05 01:27:00,
2013-10-04 21:42:00,65.7,64.0,29.98,ESE,102,0.0,1.0,93,0.00,,,0.08,weatherlink.com 1.10,2013-10-05 01:42:00,
2013-10-04 21:57:00,65.4,63.0,29.98,SE,129,0.0,3.0,93,0.00,,,0.08,weatherlink.com 1.10,2013-10-05 01:57:00,
2013-10-04 22:12:00,65.2,64.0,29.98,ENE,72,0.0,2.0,94,0.00,,,0.08,weatherlink.com 1.10,2013-10-05 02:12:00,
2013-10-04 22:27:00,65.0,63.0,29.98,ESE,120,0.0,2.0,94,0.00,,,0.08,weatherlink.com 1.10,2013-10-05 02:27:00,
2013-10-04 22:42:00,64.9,63.0,29.97,North,6,0.0,2.0,94,0.00,,,0.08,weatherlink.com 1.10,2013-10-05 02:42:00,
2013-10-04 22:57:00,64.8,63.0,29.98,NNW,330,0.0,2.0,94,0.00,,,0.08,weatherlink.com 1.10,2013-10-05 02:57:00,
2013-10-04 23:12:00,64.7,63.0,30.00,NW,318,2.0,3.0,94,0.00,,,0.08,weatherlink.com 1.10,2013-10-05 03:12:00,
2013-10-04 23:27:00,64.4,63.0,30.00,North,352,0.0,3.0,94,0.00,,,0.08,weatherlink.com 1.10,2013-10-05 03:27:00,
2013-10-04 23:42:00,64.1,62.0,30.00,NNE,15,1.0,5.0,94,0.00,,,0.08,weatherlink.com 1.10,2013-10-05 03:42:00,
2013-10-04 23:57:00,63.6,62.0,29.99,NNE,17,2.0,4.0,94,0.00,,,0.08,weatherlink.com 1.10,2013-10-05 03:57:00,